Location: Unspecified
(0.0000°N, 0.0000°E)
Time: 23:42:06
(UTC+00:00)

ARIANE 6 FM1 Upper Stage - Pass Details

Date: 15 April 2026
Orbit: 525 x 604 km, 62.0° (Epoch: 18 April)

Event Time Altitude Azimuth Distance (km) Brightness Sun altitude
Exits shadow 04:28:35 81° 319° (NW) 551 2.4 -22.5°
Maximum altitude 04:28:46 88° 249° (WSW) 546 2.4 -22.5°
Drops below altitude 10° 04:32:53 10° 156° (SSE) 1,829 5.4 -21.5°
Sets 04:35:08 0° 156° (SSE) 2,740 6.4 -20.9°
